Tracking 28091 objects as of 29-Sep-2023
HD Live streaming from Space Station
objects crossing your sky now

SL-8 DEB

Track SL-8 DEB now!
10-day predictions


NORAD ID: 21936
Int'l Code: 1991-009CD
Perigee: 1,472.1 km
Apogee: 1,894.0 km
Inclination: 74.1 °
Period: 119.9 minutes
Semi major axis: 8054 km
RCS: 0.0437 m2 (small)
Launch date: February 12, 1991
Source: Commonwealth of Independent States (former USSR) (CIS)
Launch site: PLESETSK MISSILE AND SPACE COMPLEX (PKMTR)

Note: This is SATELLITE DEBRIS
Your satellite tracking list
Your tracking list is empty




NASA's NSSDC Master Catalog

Two Line Element Set (TLE):
1 21936U 91009CD  23271.82988740  .00000129  00000-0  15639-2 0  9999
2 21936  74.0640 182.9588 0261903 121.8331 301.1981 12.01110234389597
Source of the keplerian elements: AFSPC